Lapse_Rate
4.8 4.7 4.6 4.7 4.7 5.0 5.4 5.7 5.8 5.7 5.8 5.7 5.9 5.7 4.8 3.9 2.6 2.4 3.8 4.7 4.4 6.2 5.2 4.3 4.3 4.7 4.7 4.6 4.2 3.7 6.5 6.5 6.5 6.5 6.5 6.2 6.5 5.4 5.0 5.5 5.1 4.2 4.2 3.7 3.3
4.5 4.3 4.2 3.9 4.3 4.7 5.1 5.6 5.4 5.5 5.7 5.9 5.8 5.5 5.3 4.2 2.2 3.9 5.0 5.9 6.2 5.9 4.3 4.8 5.0 5.2 4.7 5.0 4.8 6.3 6.5 6.5 6.5 6.5 6.5 6.4 6.3 6.1 6.2 6.3 6.2 4.6 2.7 1.7 2.2
4.8 4.6 4.3 4.4 4.2 4.1 4.2 4.6 5.3 5.6 5.7 5.9 6.3 5.6 5.2 4.0 4.5 5.7 6.0 6.6 6.6 4.9 3.7 4.1 4.6 5.6 6.0 5.5 5.7 6.2 6.5 6.5 6.4 5.6 6.0 6.4 6.3 5.5 6.3 6.5 5.6 5.1 2.8 1.5 2.4
5.5 5.1 4.5 4.3 4.3 4.2 4.2 4.2 4.6 5.1 5.7 5.9 5.7 6.0 5.2 4.6 6.5 5.6 6.8 7.2 6.8 4.3 4.8 4.9 5.3 5.5 6.5 6.5 5.7 6.5 6.3 6.3 6.2 5.9 6.1 6.5 5.9 6.3 5.1 5.7 4.6 3.5 2.5 1.5 2.3
6.2 5.9 5.3 4.8 4.5 4.5 4.1 3.8 4.3 5.0 5.6 6.1 5.9 5.6 5.6 5.3 4.7 6.0 6.8 6.4 5.4 5.4 5.4 5.7 5.7 5.8 6.5 6.4 6.3 6.5 6.5 6.1 5.3 5.1 5.4 5.6 6.2 6.2 5.9 4.1 3.6 2.9 2.2 2.1 2.8
5.7 6.0 5.5 5.1 4.7 4.7 4.5 4.3 4.0 4.6 5.3 5.9 5.7 5.6 6.2 6.4 5.9 6.2 5.8 5.7 5.5 5.5 5.3 5.6 5.4 5.4 6.1 6.4 6.5 6.2 6.3 6.2 5.4 5.6 6.0 6.4 6.5 5.7 5.6 3.5 3.5 3.3 3.0 2.7 2.9
6.2 6.0 5.9 5.3 4.6 4.3 4.5 4.6 4.6 4.2 4.6 5.6 6.5 6.3 5.8 4.9 5.5 5.2 5.7 5.8 5.6 5.8 5.6 5.4 5.2 5.8 5.8 6.5 6.0 6.2 6.5 6.5 6.5 6.5 6.5 6.0 6.5 6.5 5.6 5.1 4.5 4.0 3.7 3.4 3.8
5.3 5.5 5.5 5.3 4.9 4.2 3.9 4.3 4.4 4.1 4.6 5.6 7.0 6.8 5.2 5.5 5.0 5.4 5.3 5.2 5.4 5.8 5.7 5.5 6.0 5.7 6.0 6.1 6.3 6.5 6.5 6.5 6.5 6.5 6.4 6.4 6.5 6.5 5.1 5.2 5.4 4.5 4.3 4.3 4.2
4.7 5.4 5.5 5.1 5.0 4.6 4.3 4.4 4.7 5.1 5.6 6.7 6.9 7.1 5.3 6.0 5.7 5.0 5.4 5.6 5.6 5.8 6.1 6.2 5.4 5.3 6.0 6.5 6.5 6.5 6.5 6.5 6.5 6.5 6.5 6.5 6.5 6.5 5.0 5.0 5.5 4.8 4.7 4.7 3.8
4.6 4.5 5.0 5.0 4.8 4.5 4.5 4.6 5.3 6.8 7.2 7.7 7.6 6.6 5.5 6.1 5.8 5.2 5.2 5.7 5.8 5.8 6.1 5.5 4.3 6.5 6.5 6.5 6.5 6.5 6.5 6.5 6.5 6.5 6.5 6.5 6.5 6.5 6.2 5.4 5.4 4.8 4.6 3.7 1.8
5.2 4.9 5.0 5.1 4.8 4.4 3.8 2.6 4.1 5.1 5.4 5.0 5.6 5.5 5.9 6.4 6.6 6.1 6.1 5.7 5.8 5.3 6.5 6.2 6.5 6.5 6.5 6.5 6.5 6.5 6.5 6.5 6.5 6.5 6.5 6.5 6.5 6.5 6.5 6.2 6.3 5.7 4.5 1.5 1.5
6.0 6.2 5.7 5.0 5.0 4.5 3.4 3.5 3.6 3.7 5.8 4.3 4.9 5.6 5.6 7.0 6.5 6.1 6.3 6.0 6.2 6.5 6.5 6.5 6.5 6.5 6.5 6.5 6.5 6.5 6.5 6.5 6.5 6.5 6.5 6.5 6.5 6.5 6.5 6.6 6.2 5.5 5.4 3.3 2.9
6.2 6.0 6.5 5.8 5.2 3.5 3.6 3.0 1.9 2.9 5.8 5.9 5.6 5.7 6.2 6.0 6.0 5.7 6.0 5.5 6.5 6.5 6.5 6.5 6.5 6.5 6.5 6.5 6.5 6.5 6.5 6.5 6.5 6.5 6.5 6.5 6.5 6.5 6.5 6.7 6.9 6.1 4.4 2.4 0.7
7.0 6.3 6.1 5.9 5.5 3.9 4.1 2.2 2.3 2.8 6.5 6.5 6.4 6.4 6.1 5.9 6.4 6.0 6.1 6.2 6.4 6.5 6.5 6.5 6.5 6.5 6.5 6.5 6.5 6.5 6.5 6.5 6.5 6.5 6.5 6.5 6.5 6.5 6.5 6.5 6.5 6.7 5.5 3.2 1.7
5.7 7.1 6.4 6.3 4.4 4.9 3.9 2.0 2.3 3.8 6.5 6.5 6.4 6.3 5.6 6.2 5.8 6.2 6.0 6.2 6.5 6.5 6.5 6.5 6.5 6.5 6.5 6.5 6.5 6.5 6.5 6.5 6.5 6.5 6.5 6.5 6.5 6.5 6.5 6.5 6.5 6.5 5.7 3.8 2.4
5.9 5.7 7.4 4.7 3.3 4.2 3.3 3.4 3.8 6.5 6.5 6.5 6.3 6.5 6.5 6.3 6.3 6.3 6.2 6.1 6.2 6.5 6.5 6.5 6.1 6.5 6.5 6.5 6.5 6.5 6.5 6.5 6.5 6.5 6.5 6.5 6.5 6.5 6.5 6.5 6.5 6.5 5.4 4.3 2.2
7.1 6.2 6.9 5.2 5.0 3.2 3.2 4.8 6.5 6.5 6.5 6.5 6.5 6.5 6.5 6.5 6.5 6.5 6.5 6.5 6.5 6.5 6.5 6.5 6.5 6.5 6.5 6.5 6.5 6.5 6.5 6.5 6.5 6.5 6.5 6.5 6.5 6.5 6.5 6.5 6.5 6.5 4.5 2.8 1.4
7.0 6.9 7.2 5.6 4.0 3.3 4.7 6.4 6.5 6.5 6.5 6.5 6.5 6.5 6.5 6.5 6.5 6.5 6.5 6.5 6.5 6.5 6.5 6.5 6.5 6.5 6.5 6.5 6.5 6.5 6.5 6.5 6.5 6.5 6.5 6.5 6.5 6.5 6.5 6.5 3.9 2.8 1.9 2.9 2.8
7.3 6.4 5.3 4.4 3.9 3.7 6.3 6.5 6.5 6.5 6.5 6.5 6.5 6.5 6.5 6.5 6.5 6.5 6.5 6.5 6.5 6.5 6.5 6.5 6.5 6.5 6.5 6.5 6.5 6.5 6.5 6.5 6.5 6.5 6.5 6.5 6.5 6.5 6.5 6.5 6.5 5.6 2.9 1.9 2.5
6.2 6.8 5.2 3.5 3.9 5.0 6.5 6.5 6.5 6.4 6.5 6.5 6.5 6.5 6.5 6.5 6.5 6.5 6.5 6.5 6.5 6.5 6.6 6.5 6.5 6.5 6.5 6.5 6.5 6.5 6.5 6.5 6.5 6.5 6.5 6.5 6.5 6.5 6.5 6.5 6.5 6.5 4.7 1.9 2.6
6.8 6.9 4.9 3.3 4.8 6.5 6.5 6.5 6.5 6.0 6.2 6.5 6.5 6.5 6.5 6.5 6.5 6.5 6.5 6.5 6.5 6.5 6.5 6.5 6.5 6.5 6.5 6.5 6.5 6.5 6.5 6.5 6.5 6.5 6.5 6.5 6.5 6.5 6.5 6.5 6.5 6.5 2.7 2.0 2.3
6.7 6.5 4.6 4.8 6.5 6.4 6.5 6.5 6.5 6.4 6.4 6.5 6.5 6.5 6.5 6.5 6.5 6.5 6.5 6.5 6.8 6.6 6.5 6.5 6.5 6.5 6.5 6.5 6.5 6.5 6.5 6.5 6.5 6.5 6.5 6.5 6.5 6.5 6.5 6.5 6.0 4.8 2.2 1.8 1.7
6.6 6.5 5.0 5.4 6.5 6.5 6.5 6.5 6.5 6.5 6.5 6.5 6.5 6.5 6.5 6.5 6.5 6.5 6.5 6.7 6.8 6.5 6.5 6.5 6.5 6.5 6.5 6.5 6.5 6.5 6.5 6.5 6.5 6.5 6.5 6.5 6.5 6.5 6.5 6.6 3.9 2.7 2.2 1.8 1.8
6.0 6.5 6.0 5.9 5.3 6.5 6.5 6.5 6.5 6.2 6.5 6.5 6.5 6.5 6.5 6.5 6.5 6.5 6.5 6.5 6.8 6.7 7.0 6.7 6.5 6.5 6.5 6.5 6.5 6.5 6.5 6.5 6.5 6.5 6.5 6.5 6.5 6.5 6.5 6.5 6.0 3.4 1.6 2.2 2.8
6.2 6.3 6.2 6.5 6.5 6.5 6.5 6.5 6.5 6.5 6.5 6.5 6.5 6.5 6.5 6.5 6.5 6.5 6.5 6.5 6.6 6.8 6.6 6.5 6.5 6.5 6.5 6.5 6.5 6.5 6.5 6.5 6.5 6.5 6.5 6.5 6.5 6.5 6.5 6.5 4.6 1.2 1.7 3.7 3.6
6.7 6.6 5.8 5.4 5.8 6.5 6.5 6.5 6.5 6.5 6.5 6.5 6.5 6.5 6.5 6.5 6.5 6.5 6.5 6.5 6.5 6.5 6.5 6.5 6.5 6.5 6.5 6.5 6.5 6.5 6.5 6.5 6.5 6.5 6.5 6.5 6.5 6.5 5.6 3.9 3.3 2.6 3.9 4.3 3.9
6.8 6.7 6.0 6.5 6.5 6.5 6.5 6.5 6.5 6.5 6.5 6.4 6.5 6.5 6.5 6.5 6.2 6.3 6.1 6.3 6.5 6.5 6.5 6.5 6.5 6.5 6.5 6.5 6.5 6.5 6.5 6.5 6.5 6.5 6.5 6.5 6.5 6.5 6.5 6.5 4.9 3.9 4.4 4.1 3.7
Wind_Speed
20 20 21 21 22 23 23 18 14 11 10 10 14 17 18 19 12 1 2 3 3 2 3 1 4 3 3 3 3 3 2 3 4 5 3 1 1 1 1 3 2 1 1 1 8
21 21 22 21 23 23 24 23 22 15 12 11 7 12 18 18 3 1 1 1 2 3 3 3 3 3 2 2 2 3 3 7 3 3 3 1 3 3 3 3 3 3 2 2 12
22 21 21 23 22 22 23 24 23 21 17 13 10 8 14 9 4 1 3 1 2 5 4 2 3 3 2 2 3 3 4 3 3 5 2 1 2 3 3 5 6 6 6 9 12
24 23 23 23 23 23 23 22 22 21 21 14 9 8 14 2 5 1 2 1 3 6 3 3 3 3 3 3 3 2 5 4 3 1 2 3 2 2 7 7 3 8 5 11 15
24 25 24 24 23 23 23 21 20 20 18 18 8 5 2 3 7 2 2 2 3 2 2 3 3 3 3 3 3 4 3 2 5 4 5 2 8 5 9 8 3 3 8 14 13
23 25 25 25 24 24 23 22 19 18 17 15 4 1 2 4 2 2 3 3 2 3 2 2 4 3 2 3 4 2 3 6 6 7 4 5 4 6 4 1 6 6 9 10 11
24 23 25 25 25 24 24 23 20 16 15 13 5 1 1 10 2 0 1 2 2 3 3 2 4 3 4 2 1 1 5 5 4 2 4 3 6 8 5 2 5 6 6 7 7
24 24 25 26 26 26 25 25 21 16 12 12 4 1 5 2 1 1 3 3 3 3 4 4 2 3 1 0 2 1 1 3 1 1 0 3 6 4 0 4 6 6 6 7 6
23 24 24 24 27 27 26 25 19 6 7 4 2 2 7 3 2 2 3 5 4 3 3 4 4 3 3 3 2 2 3 3 6 2 2 4 6 4 1 4 6 7 9 7 5
22 21 23 24 26 28 28 21 6 3 6 3 2 2 4 3 2 3 0 5 3 4 3 4 4 3 2 2 4 3 3 3 5 1 0 4 16 12 7 6 9 5 6 5 4
24 21 22 24 25 27 11 4 4 3 3 6 3 3 3 1 2 1 2 4 3 5 2 2 2 5 7 6 1 1 3 5 4 3 3 8 15 14 7 6 8 7 6 4 2
25 23 21 22 24 21 2 4 1 2 6 7 7 5 5 2 2 1 2 4 3 3 3 3 5 5 2 3 3 3 3 5 5 2 3 6 17 14 3 0 2 4 6 3 2
24 25 20 21 26 3 1 4 2 4 3 6 5 4 3 5 4 5 5 4 3 3 4 5 3 4 4 4 4 3 4 3 5 4 2 7 6 4 1 2 6 8 5 1 3
22 22 21 17 5 4 1 2 2 2 3 5 3 3 3 3 1 1 0 2 1 4 5 5 3 3 3 4 6 3 2 2 2 3 3 4 5 4 1 1 3 4 1 4 5
33 24 18 1 4 4 1 3 2 1 3 2 3 1 1 3 5 1 2 3 4 4 4 4 3 4 3 4 5 2 2 1 0 1 2 1 1 5 1 2 2 3 4 6 5
23 31 22 3 2 3 4 4 2 5 7 3 4 4 3 1 1 2 2 4 2 1 1 5 3 2 2 2 2 3 3 4 3 2 1 3 3 3 1 3 2 2 6 7 9
16 7 23 3 4 8 2 2 2 4 2 5 4 4 2 3 1 3 2 3 1 3 3 3 1 1 1 2 2 2 3 3 4 3 3 2 2 6 1 3 5 5 7 9 9
14 4 11 4 5 5 3 1 5 4 5 1 4 4 4 5 1 1 4 1 3 3 3 2 3 3 1 1 2 2 2 3 4 2 3 1 5 3 2 2 2 4 5 8 9
15 3 2 3 13 1 2 4 7 4 5 2 2 4 3 2 4 2 2 4 2 1 4 2 3 2 3 1 1 1 1 1 3 1 1 3 5 2 3 2 2 6 6 9 10
2 3 3 10 12 2 5 10 5 5 3 3 4 1 5 2 3 3 0 0 3 2 1 1 3 2 1 2 4 2 3 2 2 1 4 4 4 2 2 2 6 7 8 10 10
2 3 2 9 3 2 4 5 5 6 6 3 1 1 2 4 3 2 3 1 2 3 2 3 2 4 1 4 5 2 1 2 1 3 3 3 3 2 5 4 7 7 8 9 11
2 3 0 3 3 1 4 5 2 3 3 2 2 2 3 3 2 1 3 2 3 2 3 2 3 3 5 1 1 0 2 5 3 3 1 1 5 1 2 4 3 8 8 9 9
2 2 1 1 3 2 2 2 1 2 5 3 1 2 1 2 1 1 3 4 6 4 4 4 1 3 6 3 2 2 4 3 4 1 5 3 3 2 2 3 3 6 8 10 11
2 2 1 0 1 3 3 2 0 5 3 4 2 3 2 2 1 2 2 3 5 3 6 6 3 6 5 3 2 3 4 6 7 3 4 7 4 4 5 3 6 6 6 9 9
1 2 3 2 3 3 1 2 4 2 3 2 2 3 3 3 2 2 1 3 3 2 2 4 4 4 6 11 10 10 7 10 13 7 7 2 5 4 5 4 5 5 7 9 10
3 2 1 3 0 5 6 4 8 2 5 2 3 5 3 3 4 4 2 1 3 3 3 1 2 2 5 10 5 10 12 13 17 14 12 13 19 3 2 2 4 5 6 9 10
2 1 2 3 3 3 4 5 5 8 2 0 6 4 3 3 3 2 2 1 2 5 4 3 2 1 4 2 5 4 5 9 5 5 8 8 3 3 3 3 2 5 5 8 10
Wind_Direction
358 355 351 346 338 336 336 316 283 281 290 306 324 329 330 327 328 121 198 148 159 348 68 101 61 90 59 91 92 129 93 228 238 172 234 229 210 135 143 137 231 241 199 20 138
359 357 353 351 343 338 334 331 337 299 279 277 285 319 318 328 329 328 186 152 74 64 68 80 100 113 68 92 73 111 167 220 220 203 218 216 199 188 171 199 224 251 214 147 157
356 355 353 347 342 341 334 331 328 322 309 283 297 308 319 331 333 205 169 136 104 101 102 114 115 97 121 123 181 164 211 210 247 234 241 243 247 192 183 251 214 210 191 175 176
352 350 352 347 343 340 334 327 322 320 327 302 288 321 322 317 308 230 187 4 124 125 114 103 71 91 149 201 171 202 239 217 262 61 163 218 193 233 205 237 203 214 171 172 182
349 344 346 345 343 339 338 334 322 316 321 330 296 325 2 9 254 198 84 61 101 106 100 128 135 144 193 191 164 216 252 223 263 288 255 280 242 229 248 241 227 129 169 184 188
347 341 342 341 339 338 335 333 329 316 316 320 320 268 103 277 181 141 95 99 119 115 124 126 159 173 161 221 197 195 266 265 273 254 241 213 259 142 255 217 193 189 200 192 188
340 339 338 337 336 333 331 329 328 316 308 304 288 130 165 246 123 272 6 150 152 145 135 142 137 137 150 244 322 310 308 312 233 235 216 157 273 231 253 171 208 216 212 194 188
336 336 337 334 332 330 328 323 319 314 293 290 218 96 241 247 229 203 143 89 69 63 101 122 109 102 160 151 22 312 59 316 214 139 163 157 263 255 352 184 228 217 204 194 188
332 330 332 333 331 328 326 318 314 299 265 234 159 134 268 315 225 167 152 149 111 78 82 90 70 92 44 113 344 356 245 227 306 181 153 186 265 262 158 201 239 217 211 200 175
323 324 328 330 330 329 325 313 312 111 72 86 53 35 281 238 159 119 129 127 123 127 77 56 57 89 64 133 230 189 235 242 252 268 203 257 263 267 245 212 246 231 204 183 179
316 317 324 326 327 328 335 350 11 9 53 197 203 248 284 14 105 88 148 94 100 70 127 29 88 217 212 205 150 159 211 245 249 261 275 252 271 273 286 223 244 226 183 181 239
316 314 318 324 325 323 22 72 161 186 307 252 237 265 252 212 208 200 146 138 134 131 130 30 244 235 200 166 209 212 235 258 276 255 208 282 283 283 303 346 300 257 150 119 342
312 312 312 323 320 5 52 129 210 192 297 290 199 193 202 148 206 197 166 153 137 139 174 183 200 109 166 184 195 217 209 232 247 320 252 302 283 338 23 93 83 87 118 85 298
303 308 312 331 319 330 226 183 237 236 9 274 223 243 135 138 182 221 271 143 99 180 168 224 260 210 171 206 162 254 196 230 272 14 270 20 288 299 292 311 137 135 5 320 312
354 303 310 334 288 294 295 279 205 103 355 170 166 143 104 168 132 357 335 34 178 174 120 256 184 206 215 216 177 204 80 24 0 125 -0 344 94 270 5 324 150 173 295 318 337
312 337 309 166 154 242 309 292 143 52 249 198 143 173 135 32 76 107 43 44 66 115 343 248 280 218 200 72 68 120 97 47 45 97 352 242 168 279 204 199 144 244 294 330 331
312 335 320 193 233 169 141 231 140 194 296 186 179 167 134 167 122 131 88 32 140 47 347 313 212 88 137 125 59 74 72 318 336 14 227 236 192 256 179 181 190 246 318 331 309
299 346 282 220 255 153 125 187 190 251 243 89 123 107 171 172 32 95 106 30 36 73 91 67 321 167 57 113 159 146 166 162 253 300 296 187 240 260 121 155 211 270 287 300 312
297 261 170 235 197 150 196 207 198 222 302 185 73 142 155 124 126 94 105 160 91 111 158 115 273 66 45 100 101 176 170 180 100 158 326 240 273 103 164 177 278 316 333 317 319
260 276 252 147 162 139 221 223 194 195 335 313 194 123 178 129 156 96 235 38 125 68 30 192 307 25 63 105 39 141 151 70 46 283 282 271 265 238 163 245 315 322 321 319 320
297 256 354 119 151 196 209 238 211 171 130 329 191 163 135 144 158 188 163 118 121 126 66 120 94 282 328 201 175 133 172 83 101 167 205 292 274 258 174 229 282 310 312 307 312
288 256 326 145 175 188 217 200 201 148 115 171 115 232 125 173 181 144 121 99 121 113 101 115 139 259 232 17 350 120 165 160 198 236 197 283 274 351 219 250 280 296 303 307 301
271 265 235 129 213 211 276 275 238 132 154 129 120 65 70 160 99 170 98 143 157 136 153 180 332 338 346 17 22 202 196 147 110 120 208 180 258 181 257 283 270 280 309 317 308
318 277 231 320 205 166 164 245 160 1 84 77 127 105 109 173 57 166 141 168 169 135 193 177 160 196 211 199 149 238 212 186 188 194 173 235 258 199 300 307 310 313 314 311 308
274 281 339 225 239 145 197 144 179 161 58 131 142 181 157 159 113 198 153 132 147 91 72 140 217 179 256 263 248 245 216 190 209 212 211 260 237 235 262 246 277 291 310 321 325
290 283 17 289 13 145 183 227 183 158 156 194 146 154 151 137 169 188 125 144 203 31 183 339 262 200 273 257 234 253 245 221 218 229 243 274 285 178 240 242 303 320 328 324 326
249 211 94 315 331 134 200 209 192 133 337 0 147 123 140 131 125 100 104 85 150 158 195 183 180 22 267 326 299 274 235 216 192 203 218 229 250 156 232 238 297 318 332 315 316